Location: Bidwell Hollow
(37.7387°N, 90.1707°W)
Time: 14:14:12
(UTC+00:00)

Tiros 1 despin weight - Pass Details

Date: 22 May 2026
Orbit: 554 x 591 km, 48.2° (Epoch: 6 June)

Event Time Altitude Azimuth Distance (km) Brightness Sun altitude
Rises 07:13:06 0° 214° (SW) 2,782 - -29.2°
Reaches altitude 10° 07:15:29 10° 207° (SSW) 1,881 - -29.0°
Maximum altitude 07:19:29 38° 138° (SE) 877 - -28.7°
Exits shadow 07:21:49 21° 83° (E) 1,307 ? -28.6°
Drops below altitude 10° 07:23:27 10° 70° (ENE) 1,868 ? -28.4°
Sets 07:25:48 0° 63° (ENE) 2,761 ? -28.2°
